This demonstration page uses our WeatherBlox Daily Observations layout. Learn more.

Left ArrowRight Arrow

41.86663, -103.66717

Hourly Observations for September 7, 2020

Temp ( °F °C ) Dew Point ( °F °C ) Humidity (%) Winds ( mph kmh ) Pressure ( in mb ) Visibility ( mi km ) Precip ( " mm )
12:53 am 00:53 Clear 62 16.7 43 6.1 50 50 E 7 11 29.93 1013 10 16.0934 0 0
1:53 am 01:53 Clear 58 14.4 44 6.7 60 60 E 5 7 29.91 1013 10 16.0934 0 0
2:53 am 02:53 Clear 55 12.8 45 7.2 69 69 undefined N/A 29.89 1012 10 16.0934 0 0
3:53 am 03:53 Clear 55 12.8 46 7.8 72 72 E 7 11 29.87 1011 10 16.0934 0 0
4:53 am 04:53 Clear 54 12.2 46 7.8 75 75 E 7 11 29.84 1011 10 16.0934 0 0
5:53 am 05:53 Clear 54 12.2 46 7.8 75 75 E 7 11 29.85 1011 10 16.0934 0 0
6:53 am 06:53 Sunny 54 12.2 47 8.3 77 77 ESE 13 20 29.83 1010 10 16.0934 0 0
7:53 am 07:53 Sunny 57 13.9 48 8.9 72 72 ESE 14 22 29.83 1010 10 16.0934 0 0
8:53 am 08:53 Sunny 61 16.1 50 10 67 67 ESE 20 31 29.78 1009 10 16.0934 0 0
9:53 am 09:53 Sunny 68 20 50 10 53 53 SE 20 31 29.73 1007 10 16.0934 0 0
10:53 am 10:53 Sunny 74 23.3 50 10 43 43 SE 17 28 29.71 1006 10 16.0934 0 0
11:53 am 11:53 Sunny 78 25.6 50 10 37 37 E 17 28 29.67 1005 10 16.0934 0 0
12:53 pm 12:53 Sunny 80 26.7 50 10 35 35 ENE 15 24 29.68 1005 10 16.0934 0 0
1:53 pm 13:53 Sunny 82 27.8 49 9.4 32 32 E 8 13 29.68 1005 10 16.0934 0 0
2:53 pm 14:53 Sunny 80 26.7 48 8.9 33 33 NE 21 33 29.69 1005 10 16.0934 0 0
3:53 pm 15:53 Sunny 77 25 47 8.3 35 35 NE 20 31 29.73 1007 10 16.0934 0 0
4:53 pm 16:53 Hazy 70 21.1 44 6.7 39 39 NNE 28 44 29.77 1008 6 9.65604 0 0
5:53 pm 17:53 Sunny 60 15.6 43 6.1 53 53 NNE 30 48 29.85 1011 9 14.48406 0 0
6:53 pm 18:53 Partly Cloudy 51 10.6 43 6.1 74 74 NE 29 46 29.93 1014 10 16.0934 0 0
7:33 pm 19:33 Mostly Cloudy 48 8.9 41 5 77 77 NE 20 31 30 1016 10 16.0934 0 0
7:44 pm 19:44 Cloudy 46 8 41 5 82 82 NE 29 46 30.03 1017 10 16.0934 0 0
7:53 pm 19:53 Cloudy 47 8.3 41 5 80 80 NE 35 56 30.01 1016 10 16.0934 0 0
8:53 pm 20:53 Cloudy 45 7.2 40 4.4 83 83 NE 20 31 30.07 1018 10 16.0934 0 0
9:53 pm 21:53 Cloudy 44 6.7 40 4.4 85 85 NE 21 33 30.07 1018 9 14.48406 0 0
10:13 pm 22:13 Cloudy 44 6.7 39 3.9 83 83 NNE 22 35 30.14 1021 10 16.0934 0 0
10:41 pm 22:41 Cloudy 43 6.1 38 3.3 82 82 NNE 22 35 30.14 1020 10 16.0934 0 0
10:48 pm 22:48 Cloudy 43 6 37 3 81 81 NNE 25 41 30.14 1021 10 16.0934 0 0
10:53 pm 22:53 Cloudy 42 5.6 38 3.3 85 85 NNE 20 31 30.05 1018 10 16.0934 0 0
11:39 pm 23:39 Cloudy 41 5 37 2.8 86 86 NNE 18 30 30.2 1023 10 16.0934 0 0
11:47 pm 23:47 Cloudy with Light Rain 39 4 37 3 93 93 NNE 21 33 30.22 1023 9 14.48406 0.001 0.001
11:48 pm 23:48 Cloudy with Light Rain 40 4.4 37 2.8 89 89 NNE 24 39 30.1 1019 8 12.87472 0.001 0.001

Powered by AerisWeather